TimeMDT,TemperatureF,Dew PointF,Humidity,Sea Level PressureIn,VisibilityMPH,Wind Direction,Wind SpeedMPH,Gust SpeedMPH,PrecipitationIn,Events,Conditions,WindDirDegrees,DateUTC
12:53 AM,33.1,30.0,89,30.06,10.0,Calm,Calm,-,N/A,,Clear,0,2012-10-08 06:53:00
1:53 AM,33.1,28.9,85,30.06,10.0,Calm,Calm,-,N/A,,Clear,0,2012-10-08 07:53:00
2:53 AM,28.9,26.1,89,30.04,10.0,SSW,3.5,-,N/A,,Clear,210,2012-10-08 08:53:00
3:53 AM,28.9,28.0,96,30.03,10.0,SSW,6.9,-,N/A,,Clear,210,2012-10-08 09:53:00
4:53 AM,28.9,27.0,92,30.03,10.0,Calm,Calm,-,N/A,,Clear,0,2012-10-08 10:53:00
5:53 AM,27.0,26.1,96,30.03,10.0,SSW,6.9,-,N/A,,Clear,200,2012-10-08 11:53:00
6:53 AM,26.1,24.1,92,30.05,10.0,West,3.5,-,N/A,,Clear,260,2012-10-08 12:53:00
7:53 AM,33.1,30.9,92,30.06,10.0,SW,4.6,-,N/A,,Clear,230,2012-10-08 13:53:00
8:53 AM,39.0,33.1,79,30.05,10.0,West,8.1,-,N/A,,Clear,280,2012-10-08 14:53:00
9:53 AM,48.0,30.9,52,30.01,10.0,WSW,8.1,-,N/A,,Clear,240,2012-10-08 15:53:00
10:53 AM,54.0,30.0,40,29.98,10.0,WNW,10.4,-,N/A,,Clear,290,2012-10-08 16:53:00
11:53 AM,57.9,30.0,35,29.94,10.0,Variable,3.5,-,N/A,,Clear,0,2012-10-08 17:53:00
12:53 PM,63.0,28.0,27,29.90,10.0,Variable,3.5,-,N/A,,Clear,0,2012-10-08 18:53:00
1:53 PM,66.9,27.0,22,29.85,10.0,Variable,4.6,-,N/A,,Clear,0,2012-10-08 19:53:00
2:53 PM,70.0,25.0,18,29.82,10.0,Calm,Calm,-,N/A,,Clear,0,2012-10-08 20:53:00
3:53 PM,72.0,26.1,18,29.79,10.0,NE,5.8,-,N/A,,Clear,50,2012-10-08 21:53:00
4:53 PM,71.1,27.0,19,29.78,10.0,East,6.9,-,N/A,,Clear,100,2012-10-08 22:53:00
5:53 PM,61.0,34.0,36,29.80,10.0,ESE,8.1,-,N/A,,Clear,110,2012-10-08 23:53:00
6:53 PM,55.0,35.1,47,29.81,10.0,ESE,9.2,-,N/A,,Clear,110,2012-10-09 00:53:00
7:53 PM,54.0,32.0,43,29.80,10.0,SSW,4.6,-,N/A,,Clear,210,2012-10-09 01:53:00
8:53 PM,48.9,32.0,52,29.79,10.0,South,4.6,-,N/A,,Clear,190,2012-10-09 02:53:00
9:53 PM,48.0,30.9,52,29.76,10.0,SW,4.6,-,N/A,,Clear,230,2012-10-09 03:53:00
10:53 PM,46.0,30.0,54,29.76,10.0,NW,5.8,-,N/A,,Clear,320,2012-10-09 04:53:00
11:53 PM,41.0,30.0,65,29.76,10.0,WSW,5.8,-,N/A,,Clear,240,2012-10-09 05:53:00